This is the latest recevied weather packets stored in our database for station/object KI7MOQ. If no packets are shown the sender has not sent any weather packets the latest 10 day(s).
| Time | Temp. | Humidity | Pressure | Rain* | Wind** | Luminosity | Snow |
|---|---|---|---|---|---|---|---|
| 1777592035 | 27.22° C | 28% | 1017.2 hPa | 0 mm | - | 380 W/m² | - |
| 1777591733 | 27.22° C | 28% | 1017.1 hPa | 0 mm | - | 61 W/m² | - |
| 1777591428 | 27.22° C | 27% | 1017.3 hPa | 0 mm | - | 425 W/m² | - |
| 1777591125 | 27.22° C | 28% | 1017.3 hPa | 0 mm | - | 50 W/m² | - |
| 1777590820 | 27.22° C | 30% | 1017.4 hPa | 0 mm | - | 49 W/m² | - |
| 1777590516 | 26.67° C | 29% | 1017.6 hPa | 0 mm | - | 45 W/m² | - |
| 1777590212 | 26.67° C | 27% | 1017.5 hPa | 0 mm | - | 107 W/m² | - |
| 1777589910 | 26.67° C | 28% | 1017.7 hPa | 0 mm | - | 31 W/m² | - |
| 1777589605 | 26.67° C | 27% | 1017.8 hPa | 0 mm | - | 29 W/m² | - |
| 1777589303 | 26.67° C | 28% | 1017.9 hPa | 0 mm | - | 28 W/m² | - |
| 1777589000 | 26.67° C | 27% | 1018 hPa | 0 mm | - | 27 W/m² | - |
| 1777588696 | 26.67° C | 28% | 1018 hPa | 0 mm | - | 26 W/m² | - |
| 1777588392 | 26.67° C | 29% | 1017.9 hPa | 0 mm | - | 26 W/m² | - |
| 1777588088 | 26.67° C | 29% | 1018.2 hPa | 0 mm | - | 28 W/m² | - |
| 1777587784 | 26.67° C | 28% | 1018.3 hPa | 0 mm | - | 35 W/m² | - |
| 1777587483 | 26.11° C | 28% | 1018.4 hPa | 0 mm | - | 33 W/m² | - |
| 1777587180 | 26.11° C | 29% | 1018.2 hPa | 0 mm | - | 41 W/m² | - |
| 1777586875 | 26.11° C | 28% | 1018.2 hPa | 0 mm | - | 65 W/m² | - |
| 1777586571 | 26.11° C | 29% | 1018.5 hPa | 0 mm | - | 53 W/m² | - |
| 1777586267 | 26.11° C | 29% | 1018.4 hPa | 0 mm | - | 234 W/m² | - |
| 1777585964 | 26.11° C | 29% | 1018.4 hPa | 0 mm | - | 123 W/m² | - |
| 1777585659 | 26.11° C | 29% | 1018.5 hPa | 0 mm | - | 167 W/m² | - |
| 1777585355 | 26.11° C | 29% | 1018.6 hPa | 0 mm | - | 82 W/m² | - |
| 1777585050 | 26.11° C | 30% | 1018.6 hPa | 0 mm | - | 80 W/m² | - |
| 1777584746 | 26.11° C | 29% | 1018.6 hPa | 0 mm | - | 76 W/m² | - |
* Rain latest hour (hover to see other rain measurements)
** Current wind speed in m/s (hover to see current wind gust speed)